User: anonymous   Login
Location: Caltech
(34.1382°N, 118.1253°W)
Time: 01:24:16
(UTC-07:00)
Language:

Iridium 91 - Orbit

View from above orbital plane
View from above orbital plane
View from above satellite
View from above satellite

Ground track
Ground track

The orbit data is extracted from the following two-line orbital elements,

1 27372U 02005A   16272.75713730  .00000008  00000-0 -43297-5 0  9998
2 27372  86.3997  37.1004 0002193  90.3721  26.0884 14.34214559774157
Epoch (UTC): 28 September 2016 18:10:16
Eccentricity: 0.0002193
inclination: 86.3997°
perigee height: 776 km
apogee height: 779 km
right ascension of ascending node: 37.1004°
argument of perigee: 90.3721°
revolutions per day: 14.34214559
mean anomaly at epoch: 26.0884°
orbit number at epoch: 77415

The dashed part of the orbit path shows where the satellite is in the earth's shadow,  

DLR